W2DEN Weather Reports


Display with metric or nautical units.
time (UTC)temp
F
wind
direction
speed
MPH
gust
MPH
rain 1hr
in
rain 24hr
in
rain mn
in
humidity
%
barometer
mb
20200406054223 64 95 1.0 5.0 0.00 0.18 0.00 95 1011.3
20200406053223 64 99 1.0 5.0 0.00 0.18 0.00 95 1011.3
20200406052223 64 88 2.0 5.0 0.00 0.18 0.00 94 1011.3
20200406051217 64 108 0.0 4.0 0.00 0.18 0.00 94 1011.4
20200406050223 64 99 2.0 5.0 0.00 0.18 0.00 94 1011.6
20200406045223 64 64 2.0 5.0 0.00 0.18 0.00 94 1011.5
20200406044222 64 97 2.0 5.0 0.00 0.18 0.00 94 1011.5
20200406043222 64 81 3.0 7.0 0.00 0.18 0.00 94 1011.5
20200406042222 64 86 4.0 7.0 0.00 0.18 0.00 94 1011.5
20200406041222 64 104 3.0 7.0 0.00 0.18 0.00 94 1011.5
20200406040218 64 83 3.0 7.0 0.00 0.18 0.00 94 1011.6
20200406035221 64 71 2.0 4.0 0.00 0.18 0.18 94 1011.7
20200406034222 64 79 3.0 8.0 0.00 0.18 0.18 95 1012.0
20200406033216 64 85 4.0 9.0 0.00 0.18 0.18 95 1012.0
20200406032216 64 55 4.0 7.0 0.01 0.18 0.18 95 1012.2
20200406031222 64 60 3.0 6.0 0.01 0.18 0.18 95 1012.2
20200406030220 65 76 1.0 5.0 0.01 0.18 0.18 95 1012.1
20200406025221 65 47 4.0 9.0 0.01 0.18 0.18 95 1012.0
20200406024221 65 40 3.0 7.0 0.01 0.18 0.18 95 1011.8
20200406023221 65 55 3.0 7.0 0.02 0.18 0.18 95 1011.6
20200406022215 65 47 3.0 7.0 0.01 0.17 0.17 95 1011.5
20200406021221 65 43 2.0 7.0 0.01 0.17 0.17 95 1011.4
20200406020222 64 65 4.0 8.0 0.02 0.17 0.17 95 1011.4
20200406015216 64 42 4.0 7.0 0.03 0.17 0.17 95 1011.3
20200406014222 64 80 4.0 7.0 0.04 0.17 0.17 95 1011.2
20200406013221 63 67 3.0 7.0 0.03 0.16 0.16 94 1011.1
20200406012221 63 44 3.0 7.0 0.04 0.16 0.16 94 1011.3
20200406011216 63 30 4.0 7.0 0.05 0.16 0.16 94 1011.3
20200406010221 63 27 2.0 6.0 0.05 0.15 0.15 94 1011.1
20200406005217 63 41 4.0 8.0 0.04 0.13 0.14 94 1011.0
20200406004221 63 68 1.0 7.0 0.03 0.12 0.13 94 1010.9
20200406003221 63 31 3.0 9.0 0.05 0.12 0.13 94 1010.9
20200406002222 63 48 4.0 7.0 0.07 0.11 0.12 93 1010.8
20200406001216 63 25 4.0 10.0 0.07 0.10 0.11 93 1010.8
20200406000215 63 36 3.0 6.0 0.06 0.10 0.10 93 1010.6
20200405235221 63 35 3.0 6.0 0.09 0.10 0.10 93 1010.5
20200405234221 63 32 4.0 8.0 0.10 0.10 0.10 93 1010.4
20200405233222 64 25 5.0 8.0 0.08 0.08 0.08 92 1010.5
20200405232220 64 44 4.0 7.0 0.05 0.05 0.05 92 1010.3
20200405231222 65 47 4.0 9.0 0.04 0.04 0.04 91 1010.1
20200405230215 65 50 2.0 4.0 0.04 0.04 0.04 89 1010.3
20200405225215 66 52 5.0 9.0 0.01 0.01 0.01 86 1010.3
20200405224220 67 29 5.0 10.0 0.00 0.00 0.00 83 1010.2
20200405223220 68 52 8.0 12.0 0.00 0.00 0.00 80 1010.1
20200405222221 69 42 5.0 9.0 0.00 0.00 0.00 80 1009.8
20200405063223 67 0.0 0.0 0.00 0.00 0.00 93 1008.2
20200405062218 67 0.0 0.0 0.00 0.00 0.00 93 1008.3
20200405061222 67 0.0 0.0 0.00 0.00 0.00 93 1008.5
20200405060223 67 0.0 0.0 0.00 0.00 0.00 93 1008.3
20200405055221 67 0.0 0.0 0.00 0.00 0.00 93 1008.8